Location: Montreal
(45.5000°N, 73.5833°W)
Time: 03:31:07
(UTC-05:00)

Vanguard 1 - Pass Details

Date: 26 October 2017
Orbit: 650 x 3834 km, 34.2° (Epoch: 17 November)

Event Time Altitude Azimuth Distance (km) Brightness Sun altitude
Rises 03:12:09 0° 266° (W) 5,522 - -43.7°
Reaches altitude 10° 03:15:15 10° 262° (W) 4,868 - -43.2°
Exits shadow 03:29:47 54° 192° (SSW) 3,688 12.5 -41.0°
Maximum altitude 03:29:56 54° 190° (S) 3,697 12.5 -41.0°
Drops below altitude 10° 03:51:50 10° 122° (ESE) 6,936 14.7 -37.5°
Sets 03:57:24 0° 118° (ESE) 7,918 15.2 -36.6°
